Weather History for Honolulu, HI

Change the Weather History Date:

Saturday, May 17, 2014

  Actual Average Record
Temperature  
Mean Temperature 78 °F 78 °F  
Max Temperature 84 °F 85 °F 89 °F (1988)
Min Temperature 71 °F 71 °F 65 °F (2006)
Degree Days  
Heating Degree Days 0 0  
Month to date heating degree days 0 0  
Since 1 July heating degree days 0 0  
Cooling Degree Days 13 13  
Month to date cooling degree days 221 207  
Year to date cooling degree days 1415 1314  
Growing Degree Days 28 (Base 50)    
Moisture  
Dew Point 65 °F    
Average Humidity 64    
Maximum Humidity 79    
Minimum Humidity 48    
Precipitation  
Precipitation 0.00 in 0.02 in 0.67 in (1992)
Month to date precipitation 0.24 0.38  
Year to date precipitation 6.86 7.33  
Snow  
Snow 0.00 in - - ()
Month to date snowfall 0.0  
Since 1 July snowfall 0.0  
Snow Depth 0.00 in    
Sea Level Pressure  
Sea Level Pressure 30.00 in    
Wind  
Wind Speed 6 mph (SE)    
Max Wind Speed 16 mph    
Max Gust Speed 21 mph    
Visibility 10 miles    
Events      
T = Trace of Precipitation, MM = Missing Value Source: NWS Daily Summary

Daily Weather History Graph

Daily Weather History Graph

Search for Another Location

Airport:

Trip Planner

Search our weather history database for the weather conditions in past years. The results will help you decide how hot, cold, wet, or windy it might be!

Date:

Astronomy

May. 17, 2014 Rise Set
Actual Time 5:52 AM HST 7:03 PM HST
Civil Twilight 5:28 AM HST 7:27 PM HST
Nautical Twilight 5:00 AM HST 7:56 PM HST
Astronomical Twilight 4:30 AM HST 8:25 PM HST
Moon 10:17 PM HST (5/17) 8:46 AM HST (5/17)
Length of Visible Light 13h 59m
Length of Day
13h 11m
Waning Gibbous, 87% of the Moon is Illuminated
May 17
Waning Gibbous
May 21
Last Quarter
May 28
New
Jun 5
First Quarter
Jun 12
Full

Hourly Weather History & Observations

Time (HST) Temp. Heat Index Dew Point Humidity Pressure Visibility Wind Dir Wind Speed Gust Speed Precip Events Conditions
12:53 AM 77.0 °F - 66.9 °F 71% 30.02 in 10.0 mi ENE 5.8 mph - N/A   Mostly Cloudy
1:53 AM 75.9 °F - 66.0 °F 71% 30.01 in 10.0 mi NW 4.6 mph - N/A   Scattered Clouds
2:53 AM 73.9 °F - 66.0 °F 76% 30.01 in 10.0 mi NW 3.5 mph - N/A   Scattered Clouds
3:53 AM 73.0 °F - 66.0 °F 79% 30.00 in 10.0 mi Calm Calm - N/A   Scattered Clouds
4:53 AM 72.0 °F - 64.9 °F 78% 30.00 in 10.0 mi Calm Calm - N/A   Partly Cloudy
5:53 AM 72.0 °F - 64.9 °F 78% 30.01 in 10.0 mi Calm Calm - N/A   Scattered Clouds
6:53 AM 73.0 °F - 64.0 °F 73% 30.02 in 10.0 mi North 4.6 mph - N/A   Scattered Clouds
7:53 AM 77.0 °F - 64.0 °F 64% 30.03 in 10.0 mi NW 3.5 mph - N/A   Scattered Clouds
8:53 AM 81.0 °F 82.2 °F 63.0 °F 54% 30.03 in 10.0 mi South 8.1 mph - N/A   Scattered Clouds
9:53 AM 80.1 °F 81.5 °F 63.0 °F 56% 30.03 in 10.0 mi Calm Calm - N/A   Mostly Cloudy
10:53 AM 82.9 °F 84.4 °F 64.0 °F 53% 30.01 in 10.0 mi South 8.1 mph - N/A   Mostly Cloudy
11:53 AM 82.0 °F 83.8 °F 64.9 °F 56% 30.00 in 10.0 mi SE 9.2 mph - N/A   Mostly Cloudy
12:53 PM 84.0 °F 84.9 °F 63.0 °F 49% 29.98 in 10.0 mi SE 13.8 mph - N/A   Scattered Clouds
1:53 PM 84.0 °F 85.8 °F 64.9 °F 53% 29.97 in 10.0 mi SE 13.8 mph - N/A   Scattered Clouds
2:53 PM 82.0 °F 84.1 °F 66.0 °F 58% 29.96 in 10.0 mi SE 10.4 mph - N/A   Scattered Clouds
3:53 PM 82.0 °F 83.8 °F 64.9 °F 56% 29.96 in 10.0 mi South 10.4 mph - N/A   Scattered Clouds
4:53 PM 81.0 °F 83.0 °F 66.0 °F 60% 29.96 in 10.0 mi SSE 10.4 mph - N/A   Scattered Clouds
5:53 PM 80.1 °F 82.1 °F 66.0 °F 62% 29.97 in 10.0 mi South 5.8 mph - N/A   Scattered Clouds
6:53 PM 79.0 °F - 66.0 °F 64% 29.98 in 10.0 mi South 3.5 mph - N/A   Scattered Clouds
7:53 PM 78.1 °F - 64.9 °F 64% 29.99 in 10.0 mi Calm Calm - N/A   Scattered Clouds
8:53 PM 77.0 °F - 66.0 °F 69% 30.01 in 10.0 mi West 3.5 mph - N/A   Scattered Clouds
9:53 PM 75.9 °F - 66.0 °F 71% 30.02 in 10.0 mi NE 3.5 mph - N/A   Scattered Clouds
10:53 PM 75.0 °F - 66.0 °F 73% 30.03 in 10.0 mi NNE 4.6 mph - N/A   Partly Cloudy
11:53 PM 75.0 °F - 66.0 °F 73% 30.02 in 10.0 mi NNW 5.8 mph - N/A   Scattered Clouds